Tracking 19193 objects as of 24-Jun-2018
HD Live streaming from Space Station
objects crossing your sky now

CZ-3B DEB

Track CZ-3B DEB now!


NORAD ID: 40166
Int'l Code: 2010-042T
Perigee: 1,409.3 km
Apogee: 39,671.8 km
Inclination: 25.8 °
Period: 732.3 minutes
Semi major axis: 26911 km
RCS: Unknown
Launch date: September 4, 2010
Source: People's Republic of China (PRC)
Launch site: Xichang Space Center, China (XSC)

Note: This is SATELLITE DEBRIS
aabbcc
Your satellite tracking list
Your tracking list is empty




NASA's NSSDC Master Catalog

Two Line Element Set (TLE):
1 40166U 10042T   18175.18459764 -.00000139  00000-0  00000+0 0  9993
2 40166  25.7635 263.3438 7108947 238.9837  31.6303  1.96650674 50377
Source of the keplerian elements: AFSPC